Location: Bald Rock
(37.3738°N, 119.9354°W)
Time: 16:22:13
(UTC+00:00)

IRS-1D - Visible Passes

Search period start: 18 January 2026 00:00
Search period end: 28 January 2026 00:00
Orbit: 737 x 810 km, 98.8° (Epoch: 17 January)

Date Brightness Start Highest point End Pass type
(mag) Time Alt. Az. Time Alt. Az. Time Alt. Az.
18 Jan 6.6 01:34:06 10° SW 01:36:54 15° W 01:39:45 10° WNW visible
18 Jan 5.8 12:05:28 10° NE 12:09:38 23° E 12:13:44 10° SE visible
18 Jan 3.9 13:43:52 10° N 13:48:49 41° WNW 13:53:44 10° SW visible
19 Jan 3.5 13:09:19 10° NNE 13:14:39 86° WNW 13:19:56 10° SSW visible
20 Jan 4.6 12:35:14 10° NNE 12:40:19 44° E 12:45:19 10° S visible
20 Jan 4.7 14:15:04 10° NNW 14:19:04 22° WNW 14:23:02 10° WSW visible
21 Jan 5.9 12:01:51 10° NE 12:05:48 21° E 12:09:41 10° SE visible
21 Jan 3.8 13:40:01 10° N 13:45:03 44° WNW 13:50:02 10° SW visible
22 Jan 3.5 13:05:31 10° NNE 13:10:52 87° ESE 13:16:08 10° SSW visible
23 Jan 4.8 12:31:30 10° NNE 12:36:30 40° E 12:41:24 10° SSE visible
23 Jan 4.6 14:11:09 10° NNW 14:15:19 24° WNW 14:19:26 10° WSW visible
24 Jan 6.0 11:58:17 10° NE 12:01:57 19° E 12:05:35 10° SE visible
24 Jan 3.7 13:36:11 10° N 13:41:17 49° WNW 13:46:18 10° SW visible
25 Jan 3.6 13:01:44 10° NNE 13:07:04 79° ESE 13:12:18 10° S visible
25 Jan 5.2 14:43:12 10° NW 14:45:25 13° WNW 14:47:39 10° W visible
26 Jan 5.0 12:27:47 10° NNE 12:32:40 36° E 12:37:28 10° SSE visible
26 Jan 4.5 14:07:15 10° NNW 14:11:33 26° WNW 14:15:49 10° WSW visible
27 Jan 6.2 11:54:44 10° NE 11:58:06 17° E 12:01:25 10° SE visible
27 Jan 3.6 13:32:20 10° N 13:37:30 53° WNW 13:42:33 10° SSW visible
